Regional Weather Roundup
Issued by NWS Mobile, AL

Home | Current Version | Previous Version | Text Only | Print | Product List | Glossary On
Versions: 1 2 3 4 5 6 7 8 9 10 11 12 13 14 15 16 17 18 19 20 21 22 23 24 25 26 27 28 29 30 31 32 33 34 35 36 37 38 39 40 41 42 43 44 45 46 47 48 49 50
000
ASUS44 KMOB 280216
RWRMOB
REGIONAL WEATHER ROUNDUP
NATIONAL WEATHER SERVICE MOBILE AL
900 PM CDT THU AUG 27 2015

ALZ061>064-280300-
COASTAL ALABAMA


CITY           SKY/WX    TMP DP  RH WIND       PRES   REMARKS
MOBILE REG APT CLEAR     75  64  68 NW6       29.99R
BROOKLEY FIELD CLEAR     77  63  61 N7        29.99R
GULF SHORES    PTCLDY    75  69  80 CALM      29.97R

$$

ALZ051>060-280300-
INTERIOR SOUTHWEST AND SOUTH CENTRAL ALABAMA


CITY           SKY/WX    TMP DP  RH WIND       PRES   REMARKS
ANDALUSIA/OPP  CLEAR     80  64  58 N3        29.98R
EVERGREEN      PTCLDY    73  65  75 NW3       29.99R
FLORALA        CLEAR     73  66  78 CALM      29.99R
GREENVILLE     NOT AVBL

$$

FLZ001>006-280300-
WESTERN FLORIDA PANHANDLE


CITY           SKY/WX    TMP DP  RH WIND       PRES   REMARKS
CRESTVIEW      CLEAR     76  66  71 W5        29.99R
DESTIN         CLEAR     81  65  58 CALM      29.96R
DUKE FIELD     CLEAR     76  64  66 NW3       29.96R
MARY ESTHER    CLEAR     79  62  57 CALM      29.95R
MILTON         CLEAR     75  66  73 W3        29.98R
PENSACOLA      CLEAR     78  66  66 W7        29.97R
NAS PENSACOLA  PTCLDY    76  66  71 NW5       29.96R
VALPARAISO     CLEAR     77  65  65 CALM      29.97R

$$

...MARINE OBSERVATIONS...

STATION/POSITION TIME  SKY/WX   TEMP    WIND        PRES    VSBY
                                AIR SEA DIR/SP/G
                 (UTC)          (F)     (DEG/KT/KT) (MB)    (MI)
PASCAGOULA       0100            82     350/  5/  6 1014.3R
GRAND BAY        0045            81     350/  5     1015.0
PETIT BOIS ISL   0100            84     360/ 11/ 14 1014.7R
E DAUPHIN ISLAND 0200            82     230/  3/  3 1014.8R
MIDDLE BAY LIGHT 0100                   360/ 14     1013.9R
USCG MOBILE BAY  0100            83 81  350/  5/  6 1013.4R
STATE DOCKS      0100            84 86              1014.1R
MEAHER PARK      0200            79     360/  2     1014.6R
FORT MORGAN      0100            82     260/  6/  7 1013.9R
12 S ORANGE BCH  0150            82 86  290/  8/ 10 1014.2R
WVE H/P(F/S)=  0

PENSACOLA BAY    0100            81 84  290/  3/  5 1014.3R
64 S DAUPHIN ISL 0150            81 86   20/  6/  8 1014.9R
WVE H/P(F/S)=  1/ 3

115 SE PENSACOLA 0150            83 86   10/  8/ 10 1014.4R
WVE H/P(F/S)=  1/ 4

MID GULF/42001   0200            83 86   30/ 10/ 14 1014.8R
EAST GULF/42003  0150            84 88  280/  8/ 10 1013.6R
WVE H/P(F/S)=  2/ 5


$$

...NEARBY LOCATIONS

CITY           SKY/WX    TMP DP  RH WIND       PRES   REMARKS
GULFPORT       CLEAR     79  63  57 CALM      29.97R
BILOXI         CLEAR     78  65  65 NE5       29.97R
PASCAGOULA     CLEAR     71  68  90 CALM      29.98R
HATTIESBURG    CLEAR     74  62  66 CALM      30.00R
LAUREL         CLEAR     70  59  68 CALM      30.02R
MERIDIAN       CLEAR     69  62  78 CALM      30.02R
MERIDIAN NAS   CLEAR     73  61  65 NW3       30.03R
MONTGOMERY     CLEAR     76  65  68 CALM      29.99R
MAXWELL AFB    CLEAR     76  70  80 NE3       29.98R
TROY           CLEAR     77  65  66 N7        30.00R
FORT RUCKER    PTCLDY    76  65  68 N5        29.96R
DALEVILLE      PTCLDY    81  63  54 NE6       29.96R
DOTHAN         CLEAR     76  64  66 NE6       30.01R

$$

...OTHER SURROUNDING LOCATIONS...

CITY           SKY/WX    TMP DP  RH WIND       PRES   REMARKS
BIRMINGHAM     MOCLDY    78  66  66 NE6       30.05R
TUSCALOOSA     CLEAR     73  66  78 CALM      30.01R
COLUMBUS GA    CLEAR     79  66  64 NE5       30.01R
PANAMA CITY    NOT AVBL
TALLAHASSEE    PTCLDY    82  71  69 CALM      29.94R
BATON ROUGE    CLEAR     73  64  73 CALM      29.98R
NEW ORLEANS    PTCLDY    80  57  45 CALM      29.98R
SLIDELL        CLEAR     73  67  81 CALM      29.98R
JACKSON        CLEAR     76  56  49 NE5       30.01R
MCCOMB         CLEAR     76  60  57 CALM      30.00R

$$

...SURROUNDING MARINE OBSERVATIONS...

STATION/POSITION TIME  SKY/WX   TEMP    WIND        PRES    VSBY
                                AIR SEA DIR/SP/G
                 (UTC)          (F)     (DEG/KT/KT) (MB)    (MI)
WAVELAND         0100            83 83   10/  7/  9 1015.0R
PASCAGOULA RGN A 0100            81     360/  6/  7 1013.9R
PASCAGOULA PORT  0100               86                N/A
GRAND ISLE       0100            81 85   10/  3/  5 1015.1R
SOUTHWEST PASS   0200                                 N/A
PILOT STATION E  0100            82 86   20/  7/  8 1015.1R
SHELL BEACH      0100            81 83  240/  3/  3 1014.4R
PANAMA CITY      0100            82 86  290/  6/  7 1013.5R
APALACHICOLA     0100            81 87  320/  2/  4 1013.9R
TYNDALL TOWER C  0200            83     330/  9/ 10 1013.7R
S APLCHCLA/42036 0150            85 88  170/  6/  8 1013.7R
WVE H/P(F/S)=  2/ 5


$$




USA.gov is the U.S. government's official web portal to all federal, state and local government web resources and services.